Location: Dead Woman Crossing
(43.5369°N, 106.3228°W)
Time: 13:53:55
(UTC+00:00)

POLYITAN 1 - Visible Passes

Search period start: 25 June 2022 00:00
Search period end: 05 July 2022 00:00
Orbit: 585 x 607 km, 98.0° (Epoch: 24 June)

Date Brightness Start Highest point End Pass type
(mag) Time Alt. Az. Time Alt. Az. Time Alt. Az.
25 Jun ? 08:23:58 10° NNE 08:27:55 37° E 08:29:10 30° SE visible
25 Jun ? 10:00:09 10° NNW 10:03:17 21° WNW 10:05:50 13° WSW visible
26 Jun ? 08:33:45 10° NNE 08:37:50 48° E 08:39:10 35° SSE visible
26 Jun ? 10:10:24 10° NNW 10:13:05 17° WNW 10:15:46 10° WSW visible
27 Jun ? 08:43:34 10° NNE 08:47:46 63° ESE 08:49:10 39° SSE visible
27 Jun ? 10:20:48 10° NNW 10:22:53 13° WNW 10:24:56 10° W visible
28 Jun ? 08:53:25 10° NNE 08:57:40 81° ESE 08:59:09 40° S visible
28 Jun ? 10:31:37 10° NW 10:32:39 11° WNW 10:33:40 10° WNW visible
29 Jun ? 09:03:18 10° N 09:07:33 79° WNW 09:09:08 38° SSW visible
30 Jun ? 07:39:40 10° ENE 07:41:25 12° E 07:42:27 11° ESE visible
30 Jun ? 09:13:14 10° N 09:17:24 62° WNW 09:19:07 33° SW visible
01 Jul ? 07:48:48 10° NE 07:51:24 16° E 07:52:25 15° ESE visible
01 Jul ? 09:23:11 10° N 09:27:16 48° WNW 09:29:05 29° SW visible
02 Jul ? 07:58:14 10° NE 08:01:21 20° E 08:02:23 18° ESE visible
02 Jul ? 09:33:10 10° N 09:37:06 38° WNW 09:39:03 24° WSW visible
03 Jul ? 08:07:47 10° NE 08:11:18 25° E 08:12:21 22° ESE visible
03 Jul ? 09:43:11 10° N 09:46:54 30° WNW 09:49:01 20° WSW visible
04 Jul ? 08:17:25 10° NNE 08:21:14 31° E 08:22:18 27° SE visible
04 Jul ? 09:53:16 10° NNW 09:56:42 24° WNW 09:58:58 16° WSW visible
